Dewpoint
70 70 71 70 71 70 68 67 57 60 58 55 55 55 54 59 60 60 61 63 62 61 64 61 59 58 58 57 57 61 62 58 60 52 53 64 70 69 70 70 71 71 72 73 74 75 75 76 77 77 77 77 76 76 76 76 76 76 76 76 76 76 76 76 76 76 76 76 76 75 76 75 76 76 76 75 75 75 75 75 75 74 75 74 74 74 75 75 75 75 74 74 74 74 73 74 74
70 70 71 71 70 70 63 67 58 57 57 53 52 56 56 60 60 58 60 62 62 62 61 58 58 59 60 60 61 61 61 63 65 64 65 67 69 69 70 71 71 71 72 73 73 74 74 76 77 77 76 76 76 76 76 76 76 76 76 76 76 76 76 75 76 76 76 76 75 75 75 76 75 75 75 75 75 75 75 74 74 74 74 74 74 75 75 75 75 75 74 74 74 74 74 74 75
70 69 69 71 69 68 67 64 56 55 53 51 53 55 59 57 58 60 62 62 62 62 60 58 59 60 60 60 59 61 58 65 64 64 66 69 67 69 70 71 72 72 72 73 73 74 74 76 77 77 76 76 76 76 76 76 76 76 77 77 76 76 76 76 76 75 75 74 75 75 75 75 75 75 75 75 75 75 74 75 75 75 75 74 74 74 75 75 75 74 74 74 74 74 74 74 74
70 70 68 67 61 66 63 61 58 54 52 52 52 55 58 58 59 62 63 63 63 62 59 58 60 63 59 58 62 62 62 62 64 64 66 67 67 69 71 71 73 72 72 73 73 74 74 76 77 77 76 76 76 76 76 76 77 77 77 76 76 76 76 76 76 75 75 75 74 75 75 75 75 75 75 75 75 74 75 75 75 74 74 74 74 75 75 75 75 74 75 75 74 73 73 74 73
70 70 70 68 64 60 61 59 58 57 53 54 53 56 59 59 60 61 62 62 63 61 58 59 60 63 64 62 64 62 61 65 64 65 65 67 69 70 71 71 72 71 72 72 73 73 74 77 77 76 76 76 76 76 76 76 76 76 76 76 76 76 76 76 76 75 75 75 76 75 75 75 75 75 75 75 75 75 75 75 74 74 74 74 75 75 75 75 76 75 75 75 74 74 73 73 74
70 69 71 70 64 68 64 58 57 55 54 56 54 56 60 61 60 61 62 62 62 61 59 59 59 61 61 62 64 61 64 61 64 65 66 67 69 70 71 72 70 71 71 73 73 74 73 77 76 77 76 76 76 76 76 76 76 76 76 76 76 76 76 75 75 76 75 75 75 75 75 75 75 75 75 75 74 75 75 74 74 75 74 75 75 76 75 75 75 75 75 75 74 74 73 74 74
67 67 68 67 67 67 59 56 54 54 55 58 57 57 60 61 61 62 61 61 61 61 60 60 62 61 60 62 63 65 65 65 65 65 67 69 70 71 71 70 70 71 72 73 73 74 73 76 77 77 76 76 76 76 76 76 76 76 76 76 75 75 75 76 76 75 75 75 75 75 75 75 75 75 75 75 76 75 75 75 75 75 75 74 74 75 75 75 74 75 75 75 74 74 74 74 73
69 67 65 63 61 62 56 54 54 55 56 59 60 58 62 63 62 63 60 59 59 60 60 61 60 62 61 63 61 65 65 65 66 67 68 69 70 71 71 70 70 70 71 72 74 74 76 76 76 76 76 76 76 76 76 76 76 75 75 75 76 76 76 75 75 75 75 75 75 75 75 75 74 75 75 75 75 75 75 75 75 75 74 74 75 75 75 75 73 74 75 75 74 74 74 74 74
68 69 68 64 58 58 55 54 54 57 57 58 59 64 64 63 62 61 60 59 59 60 60 60 61 58 61 62 62 65 66 66 68 70 69 69 70 70 71 70 69 70 71 71 73 74 74 76 76 76 76 76 76 76 76 76 76 75 75 75 76 76 75 75 75 75 75 75 75 74 75 75 75 75 75 75 75 75 75 74 74 74 75 75 75 75 75 75 74 74 75 75 75 75 74 74 74
68 68 63 61 58 54 55 53 54 55 56 61 60 62 64 64 62 60 59 59 59 59 60 61 61 61 62 62 63 64 65 67 68 68 69 69 70 70 70 70 71 71 71 71 73 73 74 76 76 76 76 76 76 76 76 76 75 75 75 75 75 75 75 75 75 76 75 75 74 74 75 76 75 75 75 75 75 75 75 75 75 74 75 75 75 75 75 74 74 74 74 75 74 74 74 74 74
65 67 67 60 56 54 53 52 53 55 57 60 61 65 63 62 60 60 59 59 60 59 61 61 60 61 60 62 65 67 67 67 67 67 69 69 70 70 70 71 71 71 71 71 72 73 74 75 76 76 76 76 77 76 76 76 75 76 76 75 75 75 74 74 75 75 75 75 75 75 75 75 75 75 75 75 76 75 75 75 75 75 75 75 75 75 74 74 74 74 74 75 75 74 74 74 73
64 63 63 56 55 55 54 54 54 54 57 60 60 64 62 62 62 59 58 58 59 60 60 60 60 62 61 62 64 67 67 67 67 68 69 69 69 69 70 70 71 71 71 71 72 73 73 74 75 76 76 76 76 76 76 76 76 76 76 76 75 75 74 74 74 75 75 75 75 75 76 76 76 75 75 75 75 75 75 75 75 75 75 75 75 75 74 74 74 74 74 74 74 74 74 74 73
65 63 60 57 54 55 54 55 54 56 54 56 59 63 63 61 59 60 59 59 59 59 59 61 62 61 59 61 65 66 65 66 67 68 69 69 69 70 70 70 71 71 72 73 72 73 73 73 73 75 75 76 76 76 76 76 76 76 76 75 75 75 74 75 74 75 75 75 75 75 75 75 75 75 75 75 75 75 75 74 74 75 75 75 75 75 74 74 74 74 73 74 74 74 74 73 73
65 63 61 56 58 56 55 55 55 54 52 55 60 63 63 60 60 62 61 59 59 58 60 62 61 62 62 63 65 64 64 66 67 68 68 69 69 69 70 70 71 71 72 73 73 74 73 72 72 73 75 76 76 76 76 76 76 76 76 75 75 75 75 75 75 75 75 75 75 75 75 75 75 75 75 75 76 75 74 74 75 75 75 75 75 75 75 74 75 75 74 74 74 74 73 73 73
64 65 61 59 56 55 56 53 51 53 52 57 61 62 61 63 62 63 62 61 60 62 62 62 62 59 60 61 62 63 65 66 67 68 68 69 69 69 70 70 71 71 71 72 72 73 72 72 72 74 75 75 76 76 76 76 76 76 75 75 75 75 75 75 75 75 75 74 74 74 74 75 75 75 75 75 75 75 75 75 75 75 75 75 75 75 74 74 74 74 75 75 74 75 74 73 74
66 64 61 57 54 54 54 54 54 51 52 57 62 61 61 62 62 61 61 61 61 62 61 60 62 59 61 61 62 63 65 67 67 68 68 69 69 69 70 70 70 71 72 72 72 73 72 72 73 73 75 75 75 75 76 76 76 75 75 75 75 75 75 75 75 75 75 75 74 74 74 75 74 75 75 75 75 74 74 74 74 75 76 75 75 74 74 74 74 74 75 74 74 74 74 73 74
67 65 60 58 54 55 53 53 51 48 55 59 62 61 60 60 63 64 63 62 61 60 61 61 60 62 61 62 64 65 66 67 68 67 68 69 69 68 70 70 70 71 71 72 73 73 73 73 73 74 75 75 74 75 75 75 75 75 75 75 75 75 75 75 75 75 75 75 74 76 76 75 77 76 75 75 74 74 74 74 74 74 75 75 75 74 74 74 75 75 74 75 74 74 74 74 73
66 61 58 56 56 55 55 53 50 52 56 59 60 60 60 60 61 61 62 61 62 61 62 63 64 63 64 65 65 66 66 67 67 66 67 67 68 67 68 69 69 70 71 72 73 73 73 73 74 74 74 75 75 75 75 75 76 75 75 75 75 75 75 75 75 75 75 76 76 77 77 76 76 76 76 75 76 76 75 74 74 74 74 74 74 74 74 75 74 73 73 74 74 74 74 75 75
62 59 58 55 56 57 59 56 56 53 52 60 60 60 59 59 60 61 60 60 60 60 62 62 63 64 65 65 65 65 66 66 66 66 66 66 66 66 67 68 69 69 70 71 72 73 73 73 73 73 74 75 75 75 74 75 75 75 75 75 75 74 75 76 76 76 76 76 77 77 77 76 76 76 76 75 75 75 75 75 74 74 75 75 75 75 75 75 74 74 74 74 75 74 74 75 75
62 60 56 57 58 58 59 58 57 56 55 59 60 59 59 60 60 61 59 59 60 60 61 61 62 62 63 65 65 65 66 65 66 65 65 66 66 66 67 67 67 69 69 70 72 73 73 73 73 73 74 74 75 74 74 75 75 75 74 74 74 74 75 75 76 76 76 76 75 75 74 76 75 77 75 76 75 74 75 75 74 75 75 76 75 75 75 75 75 75 76 74 73 73 74 73 73
60 61 57 59 59 58 57 58 58 57 56 58 59 59 58 60 60 60 59 59 59 59 61 61 62 63 63 64 64 64 64 65 65 65 65 66 66 66 66 67 68 69 70 70 72 72 73 73 73 73 74 74 74 74 74 74 75 74 74 74 74 74 75 75 75 75 76 76 76 75 74 74 74 75 76 75 76 76 76 76 75 76 76 76 75 76 76 76 76 76 76 76 75 73 72 73 73
61 59 59 60 59 56 58 58 57 56 57 59 59 58 57 60 60 59 59 57 57 59 61 62 63 63 63 63 63 64 64 64 64 65 65 65 65 66 67 67 68 69 70 69 71 72 73 73 73 72 72 74 75 74 74 74 75 74 74 74 74 75 75 75 75 75 75 76 75 74 74 75 74 74 75 75 76 76 75 75 75 75 76 77 77 76 75 76 76 75 76 75 74 73 72 73 73
57 59 60 61 60 59 60 58 61 59 56 57 57 58 59 59 59 59 59 57 58 60 62 63 64 64 64 63 63 63 63 63 64 64 65 65 66 66 67 67 68 68 70 70 71 72 73 73 73 72 71 73 74 75 74 75 75 75 75 75 74 74 75 74 73 75 75 76 75 75 72 72 73 73 74 74 74 75 75 75 74 74 75 75 76 75 75 76 75 74 74 74 75 72 71 73 73
59 57 59 59 60 59 60 59 59 58 57 55 55 58 58 58 57 59 59 58 59 61 63 64 65 64 64 63 63 62 63 63 64 64 65 65 66 66 66 67 68 68 70 70 70 71 73 72 73 73 72 73 74 74 74 74 75 74 74 76 75 74 74 73 73 73 76 75 75 75 74 73 72 72 74 74 74 74 74 75 75 73 73 74 76 76 75 74 74 74 75 74 74 74 71 72 71
57 57 58 59 59 58 58 57 56 55 55 55 56 56 56 58 57 59 58 59 60 62 64 65 65 65 64 64 63 63 63 63 64 65 66 66 66 66 67 67 68 69 68 69 70 71 71 72 73 72 72 73 73 73 73 73 74 74 74 74 74 75 74 74 73 75 74 75 75 76 75 73 72 73 74 74 74 74 74 75 73 73 74 75 75 74 75 75 74 74 75 74 73 73 72 72 72
55 57 57 55 55 56 54 53 52 51 51 53 54 54 55 57 58 57 58 59 61 63 64 65 65 64 64 64 63 63 63 63 64 64 65 66 66 66 67 67 68 68 68 69 70 70 71 72 72 72 72 72 72 71 73 73 74 74 74 74 74 75 74 74 75 73 73 74 74 76 75 74 73 72 73 74 74 74 74 75 74 74 73 74 74 74 75 74 73 73 74 75 74 74 73 73 73
53 54 56 57 56 56 56 54 53 53 51 52 51 52 53 57 56 52 58 59 62 63 64 65 64 64 63 63 64 64 64 64 64 64 65 65 66 67 67 66 67 67 69 69 69 70 71 71 71 73 73 74 72 71 72 73 74 73 74 74 74 74 74 75 74 73 73 73 74 76 76 76 75 74 73 74 74 74 74 74 73 74 73 73 75 74 75 75 74 73 74 74 75 74 73 73 73
51 51 52 54 54 52 51 51 50 50 47 49 50 50 53 55 55 52 57 60 62 62 64 64 64 64 63 63 63 64 65 65 65 64 64 65 66 66 66 66 67 68 68 69 69 71 70 71 71 72 72 73 73 72 73 72 73 73 74 74 73 73 75 74 73 73 74 74 75 76 76 76 76 75 75 75 75 74 73 73 74 74 74 74 75 74 74 75 75 74 76 76 76 76 74 73 74
49 47 45 45 44 43 43 44 45 47 45 48 50 50 51 52 52 53 57 61 61 62 63 64 64 64 64 64 63 64 64 65 65 65 65 65 66 66 66 67 67 68 69 69 70 70 69 70 70 72 72 74 73 72 72 72 72 72 72 73 73 73 73 73 73 73 74 75 76 76 76 76 77 75 76 76 75 74 74 75 74 75 75 75 75 75 76 75 74 74 75 76 76 75 73 73 74
49 48 47 45 43 42 44 44 44 44 44 48 50 45 47 49 51 52 57 60 61 62 63 63 64 64 64 64 63 64 64 65 65 65 66 66 67 67 67 67 68 68 69 69 69 70 70 70 71 71 72 72 73 72 73 73 73 72 73 72 73 73 73 73 73 74 74 75 75 76 76 77 76 76 76 76 75 75 75 76 75 74 75 76 76 76 74 74 74 74 74 74 74 75 74 74 71
43 44 42 41 39 39 42 42 42 42 46 48 48 44 48 47 50 53 58 60 61 61 62 63 63 64 64 63 63 64 64 65 65 66 66 67 67 67 68 68 68 69 69 69 69 70 71 70 70 70 72 72 72 72 72 73 73 73 72 73 73 73 73 73 72 73 74 74 74 74 76 76 77 77 77 76 75 75 74 74 75 74 76 77 74 75 75 75 75 75 74 74 75 74 73 73 72
35 33 32 36 36 37 40 42 42 42 48 48 47 44 44 46 48 54 58 60 60 61 62 62 63 63 64 63 63 63 64 65 65 65 65 66 67 67 68 68 68 68 69 70 70 70 70 71 72 70 71 71 72 72 72 73 73 73 73 73 73 74 73 73 73 72 72 72 72 73 76 77 77 77 77 77 76 76 74 73 74 76 77 76 75 76 76 75 75 75 75 74 74 73 74 73 72
31 30 33 34 35 35 38 40 42 43 48 48 46 44 49 47 49 55 58 59 59 60 61 62 62 63 63 63 63 63 64 64 65 65 66 66 66 67 68 68 68 69 69 70 70 71 71 70 72 70 69 71 71 71 72 72 73 74 74 73 72 74 73 72 73 73 72 71 71 70 75 77 77 77 78 77 77 76 74 74 74 75 77 75 76 75 75 75 75 73 76 75 74 74 72 71 70
30 31 29 35 35 35 37 39 40 43 44 46 47 44 44 48 51 56 58 59 59 60 61 62 62 62 63 63 63 63 63 64 64 65 65 66 66 67 67 69 69 69 69 70 71 70 70 71 71 70 71 70 71 72 73 72 72 73 73 73 74 73 72 72 72 73 72 71 72 72 75 76 77 78 78 77 77 76 75 75 74 76 76 76 75 75 75 75 75 74 74 76 75 75 72 72 70
28 31 31 32 36 37 37 37 38 41 43 43 47 46 45 46 53 56 57 58 59 60 60 61 62 62 63 62 62 63 63 64 64 65 65 66 66 67 67 68 68 69 69 69 70 72 71 71 71 72 71 71 70 72 73 73 73 73 73 73 73 73 73 72 72 72 71 71 69 72 76 76 76 78 78 78 77 76 75 75 75 76 76 76 75 74 75 75 75 75 74 76 76 74 74 73 71
28 31 31 32 32 34 36 37 36 43 42 42 44 45 45 46 51 56 57 58 59 59 61 61 62 62 63 63 62 63 63 63 65 65 65 66 66 66 67 68 68 69 69 70 71 71 72 72 71 72 72 70 71 72 72 71 70 71 71 71 71 72 72 72 72 71 71 70 71 73 75 76 76 77 78 78 77 77 76 75 76 76 76 76 75 74 74 74 75 75 74 74 75 75 75 73 72
33 30 32 32 32 33 35 35 35 40 40 42 43 45 44 45 48 54 56 58 58 59 60 61 61 62 62 62 62 63 63 63 65 66 66 66 66 66 67 68 68 69 70 70 70 71 71 70 71 71 71 72 71 70 70 70 70 71 70 69 68 69 72 72 71 71 70 69 72 73 75 75 76 77 78 78 77 77 77 76 77 76 76 76 75 74 74 74 76 76 76 76 74 74 72 72 70
30 31 31 31 33 32 34 35 34 37 37 38 42 42 43 44 48 52 56 57 57 58 60 61 61 61 62 63 63 63 64 64 65 66 66 66 66 66 67 68 69 68 69 70 70 70 71 71 71 71 71 71 72 71 71 71 71 70 69 68 67 67 70 70 70 71 70 70 74 75 76 75 76 77 77 78 78 77 77 76 77 77 76 76 76 76 76 76 76 76 76 76 75 74 73 71 68
29 30 30 30 32 32 33 33 33 34 39 37 40 41 41 43 46 51 55 56 57 57 59 60 61 61 62 62 63 63 64 64 64 64 66 66 66 66 67 67 68 68 69 69 70 70 71 71 72 72 72 71 71 72 72 72 72 71 69 68 67 66 68 69 67 69 71 69 72 75 75 76 76 76 77 78 77 77 77 76 77 77 77 76 76 76 76 76 76 76 76 74 74 75 73 74 71
24 28 30 29 30 31 31 34 31 33 36 37 42 39 39 42 48 51 55 55 57 57 58 59 61 61 61 61 62 63 63 64 64 65 64 65 66 67 67 67 68 68 69 69 69 70 70 71 72 72 72 72 72 72 73 73 72 72 71 70 69 68 68 69 71 71 71 70 70 73 75 76 76 76 76 77 77 77 77 76 76 76 77 77 77 76 76 76 76 76 75 75 75 72 71 72 72
22 24 27 29 30 30 29 30 29 29 30 35 37 37 37 42 45 48 53 55 56 57 57 58 60 61 62 62 62 63 63 64 64 64 65 65 66 66 66 67 68 68 68 68 69 69 69 70 71 72 72 72 73 73 73 73 73 73 72 71 70 70 70 69 69 68 70 71 71 73 74 76 76 75 76 77 76 77 77 77 76 76 77 77 77 76 76 74 75 75 76 76 75 72 71 71 73
19 22 24 27 30 30 30 31 30 29 30 32 33 35 36 40 40 42 49 55 56 57 57 58 59 60 61 61 62 63 63 64 64 64 64 65 65 66 67 67 67 68 68 68 69 69 70 70 72 73 72 72 72 73 73 73 73 72 71 70 69 69 68 68 67 67 67 68 68 70 73 74 74 75 76 77 76 76 77 77 77 76 76 77 77 75 75 76 76 75 75 75 75 75 73 72 71
17 18 23 24 29 30 31 30 30 31 31 32 34 33 34 39 39 41 49 53 55 57 57 57 58 59 59 60 61 61 62 63 64 64 65 64 65 66 67 67 67 67 68 69 69 69 70 71 72 72 72 73 72 73 73 73 73 72 72 70 70 69 68 69 69 67 67 69 71 72 74 75 76 75 75 76 76 77 77 77 77 76 76 76 77 76 75 74 73 75 76 75 75 75 75 73 73
15 20 26 25 26 29 30 30 30 31 30 30 29 29 32 34 35 41 49 51 54 56 57 57 57 59 58 59 59 61 61 62 63 64 64 65 65 66 66 67 67 67 68 68 69 69 70 71 72 72 72 72 73 73 73 73 72 72 72 71 71 70 68 70 71 71 71 73 72 73 73 74 76 76 75 77 77 77 77 77 77 77 76 75 76 75 75 74 74 76 77 77 77 76 76 74 73
18 25 27 27 27 29 30 30 30 31 30 31 31 31 31 31 36 44 45 48 51 54 56 57 57 58 58 58 58 59 60 61 62 63 63 64 65 65 66 67 67 67 67 68 69 70 70 71 72 72 72 73 73 73 73 73 73 73 72 71 71 71 71 71 71 71 71 73 72 73 74 74 76 77 76 76 77 77 77 77 77 77 76 76 76 75 75 74 75 76 77 77 77 76 76 76 75
19 30 27 24 28 30 30 30 31 32 32 32 34 30 30 31 32 33 45 43 47 52 55 55 57 58 58 58 58 58 60 61 61 62 63 64 65 65 66 66 67 67 67 69 69 69 70 71 72 72 72 72 73 73 73 73 73 73 72 72 72 72 72 72 71 71 72 73 73 74 74 75 74 75 76 77 77 77 77 77 77 76 76 75 75 75 75 75 76 76 76 75 77 77 77 76 75
25 24 28 29 28 27 30 31 33 33 31 33 33 31 29 28 32 31 41 42 44 47 53 55 57 58 58 59 58 58 59 59 60 61 62 63 64 65 65 66 67 67 67 68 68 69 70 70 71 72 72 72 73 73 73 73 73 73 73 73 72 72 72 72 71 72 72 73 73 73 73 74 74 74 74 76 77 76 76 77 76 76 76 76 76 76 76 75 74 75 75 76 77 77 77 77 76
25 19 21 27 30 31 33 32 33 30 29 33 32 31 29 29 32 32 36 41 44 46 47 52 55 56 58 59 58 58 59 59 59 60 61 63 64 64 65 66 66 67 68 68 68 69 70 70 71 72 72 73 73 72 73 72 72 73 73 73 72 72 72 71 72 72 72 72 72 72 73 74 75 74 75 74 75 74 76 76 76 76 76 76 76 76 76 75 74 74 75 76 76 77 77 76 76
23 21 23 23 28 29 27 30 27 26 26 30 30 29 29 29 33 33 33 33 40 44 42 48 52 54 57 58 58 59 58 59 59 60 61 62 63 63 64 65 67 68 68 69 68 68 69 70 71 72 72 73 73 73 72 73 72 73 72 72 73 73 73 72 72 72 73 72 72 73 74 74 74 74 75 74 74 75 76 77 77 76 77 77 77 77 77 77 77 75 75 76 76 76 75 76 75
22 21 23 21 23 23 22 25 27 25 27 26 26 28 27 30 31 32 30 32 34 40 44 45 51 54 57 57 58 58 58 59 59 59 60 61 63 63 64 65 66 67 68 68 68 69 70 70 72 71 72 73 73 73 72 73 73 73 73 73 73 73 73 73 72 71 72 72 73 73 72 71 73 73 73 75 74 75 75 76 77 77 77 78 78 77 77 77 77 76 76 76 75 76 76 76 76
25 22 21 24 23 19 20 21 23 22 22 23 25 25 27 25 29 29 30 31 32 33 37 45 49 52 56 56 57 58 58 59 60 60 60 60 62 63 63 64 66 67 67 67 68 69 70 71 71 72 72 73 73 73 73 72 72 73 73 73 73 73 72 72 72 72 72 72 72 72 73 72 72 73 74 75 76 76 76 77 77 77 77 77 78 77 76 77 77 77 77 76 76 76 76 76 75
27 27 26 25 22 25 20 23 22 23 22 21 27 22 30 26 36 33 33 31 31 31 35 40 47 50 53 54 55 56 57 57 58 59 60 61 62 63 63 64 65 66 67 67 68 70 70 71 72 72 72 73 72 73 73 73 73 73 73 73 73 73 73 72 73 73 74 73 73 73 74 74 73 74 75 76 76 76 76 76 77 76 77 77 77 77 77 76 77 76 76 76 76 76 77 77 76
25 27 26 26 28 27 23 27 32 27 24 21 26 24 25 27 25 26 27 27 31 32 32 36 40 45 51 52 54 56 56 57 58 59 59 61 61 63 62 63 63 65 66 67 69 70 71 71 71 72 72 72 72 73 73 73 73 73 73 73 73 73 72 72 71 72 70 72 74 73 73 73 74 75 74 75 75 76 76 76 76 75 77 77 77 77 77 77 78 77 76 77 76 75 77 77 76
28 25 25 28 30 29 27 21 28 24 21 27 21 18 18 21 18 22 26 25 26 31 31 31 38 44 49 50 52 55 56 57 58 59 60 61 61 62 61 61 62 64 65 67 70 70 71 71 71 71 72 72 72 72 72 72 73 73 73 73 73 73 71 71 71 71 71 72 73 73 73 73 73 72 73 73 75 75 76 76 76 76 76 76 76 76 77 77 78 76 76 77 76 77 76 77 77
27 25 27 26 26 26 30 28 23 21 20 22 23 21 18 20 22 26 24 24 24 31 35 33 34 41 45 47 51 54 56 56 58 58 60 60 60 61 62 61 61 62 65 66 68 68 69 70 70 69 71 71 71 71 71 72 73 72 72 72 73 72 72 71 71 72 73 72 71 72 71 72 72 73 74 75 75 74 75 75 76 76 76 76 77 76 77 77 77 77 76 76 77 77 76 76 77
29 29 28 27 26 27 28 28 28 28 22 22 20 21 19 21 21 19 23 28 27 26 33 33 33 38 43 47 47 51 55 56 57 58 58 59 60 60 60 60 60 61 63 64 66 66 67 68 69 69 70 71 71 71 72 72 72 72 71 72 73 73 73 72 72 73 72 71 71 71 71 71 72 72 72 73 74 73 74 74 74 74 74 74 75 75 76 77 77 77 76 75 75 76 75 75 75
28 28 28 27 27 29 28 29 26 26 25 24 22 20 22 24 26 21 22 26 32 29 34 41 38 38 42 46 48 51 54 55 57 57 57 59 60 59 59 60 60 60 62 63 63 65 66 66 67 68 69 69 69 70 71 72 72 72 73 73 72 73 72 72 72 72 72 72 72 72 71 71 72 72 72 72 73 74 74 74 73 74 73 75 76 76 76 76 77 76 76 76 76 75 75 75 76
26 26 28 28 28 27 26 27 28 26 26 27 24 22 27 23 30 23 21 22 23 31 33 37 38 36 43 45 49 53 54 55 56 55 56 57 59 60 59 60 60 60 61 61 62 63 64 65 66 67 68 68 68 69 71 72 72 72 72 72 72 72 72 72 71 71 72 71 72 72 72 72 72 72 72 71 72 72 73 73 73 74 75 75 76 77 75 76 76 76 76 75 75 75 75 75 75